Lethbridge, Alberta

4:09 AM MDT on March 25, 2017 (GMT -0600)
Lethbridge Airport

Weather History for CYQL - November, 2012

Change the Weather History Date:

Friday, November 9, 2012

  Actual Average Record
Temperature  
Mean Temperature 11 °F -  
Max Temperature 17 °F 37 °F 71 °F (2016)
Min Temperature 6 °F 16 °F -11 °F (2014)
Degree Days  
Heating Degree Days 54    
Moisture  
Dew Point 12 °F    
Average Humidity 87    
Maximum Humidity 93    
Minimum Humidity 81    
Precipitation  
Precipitation 0.02 in 0.02 in - ()
Sea Level Pressure  
Sea Level Pressure 30.19 in    
Wind  
Wind Speed 14 mph ()    
Max Wind Speed 18 mph    
Max Gust Speed 24 mph    
Visibility 3.0 miles    
Events Snow    
Averages and records for this station are not official NWS values.
T = Trace of Precipitation, MM = Missing Value Source: Averaged Metar Reports

Daily Weather History Graph

Daily Weather History Graph

Search for Another Location

Airport or City:

Trip Planner

Search our weather history database for the weather conditions in past years. The results will help you decide how hot, cold, wet, or windy it might be!

Date:

Astronomy

Nov. 09, 2012 Rise Set
Actual Time 7:34 AM MST 4:55 PM MST
Civil Twilight 6:59 AM MST 5:30 PM MST
Nautical Twilight 6:20 AM MST 6:08 PM MST
Astronomical Twilight 5:43 AM MST 6:46 PM MST
Moon 2:11 AM MST (11/9) 2:32 PM MST (11/9)
Length of Visible Light 10h 30m
Length of Day
9h 21m
Waning Crescent, 22% of the Moon is Illuminated
Nov 9
Waning Crescent
Nov 13
New
Nov 20
First Quarter
Nov 28
Full
Dec 6
Last Quarter

Hourly Weather History & Observations

Time (MST) Temp. Windchill Dew Point Humidity Pressure Visibility Wind Dir Wind Speed Gust Speed Precip Events Conditions
12:00 AM 17.6 °F 2.7 °F 15.8 °F 93% 30.17 in 1.2 mi NNE 16.1 mph - N/A Snow Light Snow
12:41 AM 17.6 °F 2.7 °F 14.0 °F 86% 30.17 in 2.0 mi NNE 16.1 mph 24.2 mph N/A Snow Light Snow
12:52 AM 17.6 °F 2.7 °F 14.0 °F 86% 30.18 in 2.5 mi North 16.1 mph 24.2 mph N/A Snow Light Snow
12:53 AM 17.6 °F 3.2 °F 14.0 °F 86% 30.18 in 3.0 mi North 15.0 mph 24.2 mph N/A Snow Light Snow
1:00 AM 17.6 °F 3.2 °F 14.0 °F 86% 30.17 in 3.0 mi North 15.0 mph 21.9 mph N/A Snow Light Snow
1:05 AM 17.6 °F 2.7 °F 14.0 °F 86% 30.18 in 2.5 mi North 16.1 mph - N/A Snow Light Snow
1:09 AM 17.6 °F 2.7 °F 14.0 °F 86% 30.18 in 1.8 mi North 16.1 mph - N/A Snow Light Snow
1:48 AM 17.6 °F 3.2 °F 14.0 °F 86% 30.17 in 1.2 mi North 15.0 mph - N/A Snow Light Snow
2:00 AM 17.6 °F 3.7 °F 14.0 °F 86% 30.17 in 1.8 mi North 13.8 mph 20.7 mph N/A Snow Light Snow
2:03 AM 17.6 °F 3.2 °F 14.0 °F 86% 30.17 in 2.2 mi North 15.0 mph - N/A Snow Light Snow
2:09 AM 17.6 °F 2.7 °F 14.0 °F 86% 30.17 in 3.0 mi North 16.1 mph - N/A Snow Light Snow
2:27 AM 17.6 °F 3.2 °F 14.0 °F 86% 30.18 in 2.2 mi North 15.0 mph - N/A Snow Light Snow
2:30 AM 17.6 °F 2.7 °F 14.0 °F 86% 30.17 in 1.8 mi North 16.1 mph - N/A Snow Light Snow
2:36 AM 17.6 °F 2.7 °F 14.0 °F 86% 30.17 in 1.5 mi North 16.1 mph - N/A Snow Light Snow
3:00 AM 15.8 °F 0.3 °F 14.0 °F 93% 30.17 in 1.0 mi North 16.1 mph - N/A Snow Light Snow
4:00 AM 15.8 °F 0.3 °F 14.0 °F 93% 30.15 in 1.0 mi North 16.1 mph 23.0 mph N/A Snow Light Snow
5:00 AM 16 °F - 14 °F 87% 30.18 in 1 mi North 13.8 mph - - Snow Light Snow
5:00 AM 15.8 °F 2.7 °F 14.0 °F 93% 30.18 in 1.0 mi North 11.5 mph 20.7 mph N/A Snow Light Snow
6:00 AM 15.8 °F 0.3 °F 14.0 °F 93% 30.17 in 1.0 mi North 16.1 mph 21.9 mph N/A Snow Light Snow
6:18 AM 15.8 °F 0.9 °F 12.2 °F 86% 30.17 in 1.5 mi North 15.0 mph 20.7 mph N/A Snow Light Snow
7:00 AM 15.8 °F -0.6 °F 12.2 °F 86% 30.17 in 1.5 mi North 18.4 mph - N/A Snow Light Snow
7:23 AM 15.8 °F -0.2 °F 12.2 °F 86% 30.19 in 0.8 mi North 17.3 mph - N/A Snow Light Snow
7:40 AM 15.8 °F 0.3 °F 12.2 °F 86% 30.19 in 1.5 mi North 16.1 mph 24.2 mph N/A Snow Light Snow
8:00 AM 15.8 °F 0.3 °F 12.2 °F 86% 30.20 in 1.0 mi North 16.1 mph - N/A Snow Light Snow
9:00 AM 15.8 °F 0.9 °F 12.2 °F 86% 30.21 in 1.0 mi North 15.0 mph - N/A Snow Light Snow
9:28 AM 15.8 °F 0.9 °F 12.2 °F 86% 30.19 in 0.8 mi North 15.0 mph 21.9 mph N/A Snow Light Snow
10:00 AM 15.8 °F 0.3 °F 12.2 °F 86% 30.18 in 1.0 mi North 16.1 mph - N/A Snow Light Snow
10:31 AM 15.8 °F 0.9 °F 12.2 °F 86% 30.20 in 2.0 mi North 15.0 mph - N/A Snow Light Snow
10:42 AM 15.8 °F 0.9 °F 12.2 °F 86% 30.20 in 5.0 mi North 15.0 mph - N/A Snow Light Snow
11:00 AM 16 °F - 13 °F 81% 30.21 in 3 mi North 16.1 mph - - Snow Light Snow
11:00 AM 15.8 °F 0.9 °F 12.2 °F 86% 30.21 in 4.0 mi North 15.0 mph - N/A Snow Light Snow
11:33 AM 15.8 °F 2.1 °F 12.2 °F 86% 30.21 in 0.5 mi North 12.7 mph - N/A Snow Snow
11:53 AM 15.8 °F 0.9 °F 14.0 °F 93% 30.20 in 0.8 mi North 15.0 mph - N/A Snow Light Snow
12:00 PM 15.8 °F 2.1 °F 14.0 °F 93% 30.20 in 0.8 mi North 12.7 mph - N/A Snow Light Snow
12:48 PM 15.8 °F 0.9 °F 14.0 °F 93% 30.18 in 1.2 mi North 15.0 mph - N/A Snow Light Snow
1:00 PM 15.8 °F 1.4 °F 12.2 °F 86% 30.18 in 1.5 mi North 13.8 mph - N/A Snow Light Snow
1:22 PM 15.8 °F -0.6 °F 12.2 °F 86% 30.18 in 3.0 mi North 18.4 mph - N/A Snow Light Snow
2:00 PM 15.8 °F -0.2 °F 12.2 °F 86% 30.19 in 6.0 mi North 17.3 mph - N/A Snow Light Snow
2:49 PM 15.8 °F 0.9 °F 12.2 °F 86% 30.19 in 2.5 mi North 15.0 mph - N/A Snow Light Snow
3:00 PM 15.8 °F 0.3 °F 12.2 °F 86% 30.19 in 2.5 mi NNE 16.1 mph - N/A Snow Light Snow
3:26 PM 14.0 °F -1.4 °F 10.4 °F 86% 30.20 in 4.0 mi North 15.0 mph - N/A Snow Light Snow
4:00 PM 14.0 °F -3.0 °F 10.4 °F 86% 30.20 in 4.0 mi North 18.4 mph - N/A Snow Light Snow
5:00 PM 12 °F - 9 °F 82% 30.22 in 3 mi North 13.8 mph - - Snow Light Snow
5:00 PM 12.2 °F -3.1 °F 8.6 °F 85% 30.22 in 2.0 mi North 13.8 mph - N/A Snow Light Snow
5:34 PM 10.4 °F -2.4 °F 8.6 °F 92% 30.22 in 4.0 mi North 9.2 mph - N/A Snow Light Snow
6:00 PM 10.4 °F -3.3 °F 6.8 °F 85% 30.22 in 4.0 mi NNW 10.4 mph - N/A Snow Light Snow
7:00 PM 10.4 °F -4.8 °F 6.8 °F 85% 30.24 in 10.0 mi NNW 12.7 mph - N/A Snow Light Snow
8:00 PM 8.6 °F -5.5 °F 5.0 °F 85% 30.25 in 10.0 mi NNW 10.4 mph - N/A Snow Light Snow
9:00 PM 8.6 °F -5.5 °F 5.0 °F 85% 30.25 in 15.0 mi North 10.4 mph - N/A Snow Light Snow
10:00 PM 6.8 °F -5.9 °F 5.0 °F 92% 30.26 in 10.0 mi NW 8.1 mph - N/A Snow Snow
11:00 PM 6 °F - 4 °F 86% 30.27 in 10 mi WNW 8.1 mph - - Snow Light Snow